DW4230 Weather Reports


time (UTC)temp
C
wind
direction
speed
KPH
gust
KPH
rain 1hr
cm
rain 24hr
cm
rain mn
cm
humidity
%
barometer
mb
20260906061526 17 19 4.8 14.5 0.00 0.00 0.00 88 1010.6
20260906054527 17 21 4.8 12.9 0.00 0.00 0.00 89 1010.8
20260906053059 17 23 3.2 12.9 0.00 0.00 0.00 88 1010.9
20260906051526 17 21 6.4 12.9 0.00 0.00 0.00 88 1011.1
20260906050116 17 360 8.0 12.9 0.00 0.00 0.00 89 1011.0
20260906044539 17 18 6.4 12.9 0.00 0.00 0.00 89 1010.9
20260906043112 17 349 3.2 11.3 0.00 0.00 0.00 89 1010.8
20260906041542 17 21 1.6 11.3 0.00 0.00 0.00 89 1010.7
20260906040009 17 358 3.2 11.3 0.00 0.00 0.00 88 1010.7
20260906034553 17 8 3.2 9.7 0.00 0.00 0.00 88 1010.8
20260906024536 17 6 3.2 9.7 0.00 0.00 0.00 87 1010.7
20260906023131 17 2 4.8 12.9 0.00 0.00 0.00 87 1010.7
20260906021524 17 19 1.6 8.0 0.00 0.00 0.00 87 1010.7
20260906020107 17 42 3.2 12.9 0.00 0.00 0.00 87 1010.6
20260906014543 17 25 1.6 11.3 0.00 0.00 0.00 87 1010.7
20260906013004 17 46 3.2 11.3 0.00 0.00 0.00 87 1010.7
20260906011552 17 51 0.0 9.7 0.00 0.00 0.00 87 1010.7
20260906010009 17 58 3.2 9.7 0.00 0.00 0.00 87 1010.6
20260906004600 17 58 1.6 9.7 0.00 0.00 0.00 86 1010.5
20260906003012 17 52 3.2 12.9 0.00 0.00 0.00 86 1010.4
20260906001550 17 31 4.8 9.7 0.00 0.00 0.00 86 1010.1
20260906000017 17 45 3.2 8.0 0.00 0.00 0.00 86 1010.0
20260905234556 17 66 1.6 8.0 0.00 0.00 0.00 85 1010.0
20260905233013 17 63 1.6 9.7 0.00 0.00 0.00 84 1010.1
20260905231536 17 52 4.8 14.5 0.00 0.00 0.00 83 1010.1
20260905230109 18 53 8.0 20.9 0.00 0.00 0.00 82 1010.1
20260905224538 18 102 6.4 12.9 0.00 0.00 0.00 83 1010.2
20260905223102 18 71 8.0 16.1 0.00 0.00 0.00 82 1010.0
20260905221536 18 54 9.7 19.3 0.00 0.00 0.00 82 1010.1
20260905220118 18 64 11.3 27.4 0.00 0.00 0.00 81 1009.6
20260905214526 19 74 12.9 25.7 0.00 0.00 0.00 81 1009.4
20260905213054 19 33 11.3 24.1 0.00 0.00 0.00 81 1009.0
20260905211523 20 37 8.0 20.9 0.00 0.00 0.00 79 1008.9
20260905210104 20 78 8.0 22.5 0.00 0.00 0.00 80 1008.7
20260905204525 20 101 11.3 24.1 0.00 0.00 0.00 80 1008.5
20260905203051 20 93 8.0 29.0 0.00 0.00 0.00 82 1008.4
20260905201507 21 15 6.4 20.9 0.00 0.00 0.00 80 1008.2
20260905200052 21 63 12.9 20.9 0.00 0.00 0.00 79 1008.1
20260905194505 21 79 8.0 24.1 0.00 0.00 0.00 79 1008.1
20260905193043 21 79 8.0 20.9 0.00 0.00 0.00 80 1008.2
20260905191507 21 72 11.3 22.5 0.00 0.00 0.00 77 1008.1
20260905190052 21 31 8.0 24.1 0.00 0.00 0.00 79 1008.2
20260905184513 21 76 9.7 22.5 0.00 0.00 0.00 79 1008.2
20260905183057 21 21 9.7 25.7 0.00 0.00 0.00 78 1008.3
20260905181520 22 57 9.7 22.5 0.00 0.00 0.00 77 1008.3
20260905180053 21 50 8.0 24.1 0.00 0.00 0.00 78 1008.3
20260905174516 21 77 8.0 20.9 0.00 0.00 0.00 77 1008.2
20260905154519 22 67 8.0 20.9 0.00 0.00 0.00 76 1007.6
20260905153059 22 53 8.0 20.9 0.00 0.00 0.00 75 1007.4
20260905151509 22 42 9.7 19.3 0.00 0.00 0.00 74 1007.5
20260905150040 22 81 9.7 20.9 0.00 0.00 0.00 76 1007.3
20260905144503 22 77 6.4 17.7 0.00 0.00 0.00 78 1007.4
20260905143041 22 51 8.0 19.3 0.00 0.00 0.00 77 1007.6
20260905141602 21 16 6.4 17.7 0.00 0.00 0.00 79 1007.5
20260905140028 21 48 6.4 14.5 0.00 0.00 0.00 79 1007.7
20260905134610 21 39 6.4 16.1 0.00 0.00 0.00 80 1007.6
20260905133036 21 37 6.4 14.5 0.00 0.00 0.00 80 1007.6
20260905131505 21 21 8.0 17.7 0.00 0.00 0.00 80 1007.5
20260905130050 21 79 8.0 16.1 0.00 0.00 0.00 81 1007.5
20260905124509 20 34 6.4 16.1 0.00 0.00 0.00 82 1007.2
20260905123043 20 37 9.7 20.9 0.00 0.00 0.00 82 1007.0
20260905121509 20 23 3.2 17.7 0.00 0.00 0.00 83 1006.8
20260905120048 19 23 8.0 16.1 0.00 0.00 0.00 84 1006.8
20260905114516 18 14 3.2 14.5 0.00 0.00 0.00 86 1006.9
20260905113101 18 10 6.4 16.1 0.00 0.00 0.00 86 1006.8
20260905111551 18 45 3.2 16.1 0.00 0.00 0.00 87 1006.7
20260905110004 18 8 6.4 17.7 0.00 0.00 0.00 88 1006.7
20260905104534 17 29 6.4 17.7 0.00 0.00 0.00 88 1006.6
20260905103002 17 8 6.4 14.5 0.00 0.00 0.00 88 1006.4
20260905101544 17 33 6.4 16.1 0.00 0.00 0.00 88 1006.1
20260905100018 17 2 8.0 17.7 0.00 0.00 0.00 88 1006.0
20260905094550 18 3 8.0 17.7 0.00 0.00 0.00 87 1005.9
20260905093009 18 38 8.0 14.5 0.00 0.00 0.00 88 1005.9
20260905091539 18 25 6.4 17.7 0.00 0.00 0.00 87 1006.0
20260905090110 18 23 6.4 14.5 0.00 0.00 0.00 87 1006.1
20260905084529 18 1 4.8 14.5 0.00 0.00 0.00 87 1006.1
20260905083057 18 15 4.8 16.1 0.00 0.00 0.00 86 1006.1
20260905081529 18 35 4.8 14.5 0.00 0.00 0.00 86 1006.1
20260905080003 18 18 4.8 17.7 0.00 0.00 0.00 86 1006.0
20260905074545 18 10 3.2 11.3 0.00 0.00 0.00 85 1006.1
20260905070031 18 16 6.4 17.7 0.00 0.00 0.00 84 1006.5
20260905064502 19 351 4.8 12.9 0.00 0.00 0.00 84 1006.6
20260905063042 20 8 3.2 12.9 0.00 0.00 0.00 83 1006.9